timestamp,wind_dir_avg,wind_spd_max_dir,wind_spd_avg,wind_spd_gust,battery_voltage,lat,long
2020-11-15 00:04:01+00:00,46.0,49.0,16.03,17.88,12.41,47.59359,-54.27349
2020-11-15 00:14:01+00:00,52.0,59.0,15.35,17.64,12.41,47.59359,-54.27349
2020-11-15 00:24:01+00:00,43.0,45.0,14.84,17.32,12.41,47.59359,-54.27349
2020-11-15 00:34:01+00:00,47.0,48.0,16.89,19.25,12.41,47.59359,-54.27349
2020-11-15 00:44:01+00:00,46.0,47.0,18.03,20.34,12.41,47.59359,-54.27349
2020-11-15 00:54:01+00:00,51.0,50.0,17.83,20.32,12.41,47.59359,-54.27349
2020-11-15 01:04:01+00:00,40.0,45.0,16.68,18.99,12.41,47.59359,-54.27349
2020-11-15 01:14:01+00:00,44.0,53.0,15.73,19.93,12.41,47.59359,-54.27349
2020-11-15 01:24:01+00:00,42.0,47.0,16.19,18.09,12.41,47.59359,-54.27349
2020-11-15 01:34:01+00:00,33.0,33.0,14.31,16.65,12.41,47.59359,-54.27349
2020-11-15 01:44:01+00:00,39.0,39.0,14.08,16.32,12.41,47.59359,-54.27349
2020-11-15 01:54:01+00:00,35.0,34.0,16.55,19.08,12.41,47.59359,-54.27349
2020-11-15 02:04:01+00:00,30.0,31.0,13.78,16.54,12.41,47.59359,-54.27349
2020-11-15 02:14:01+00:00,32.0,28.0,14.57,16.79,12.41,47.59359,-54.27349
2020-11-15 02:24:01+00:00,34.0,30.0,14.31,17.36,12.41,47.59359,-54.27349
2020-11-15 02:34:01+00:00,30.0,27.0,14.89,17.84,12.41,47.59359,-54.27349
2020-11-15 02:44:01+00:00,30.0,26.0,14.7,16.71,12.41,47.59359,-54.27349
2020-11-15 02:54:01+00:00,31.0,34.0,14.61,17.19,12.41,47.59359,-54.27349
2020-11-15 03:04:01+00:00,32.0,37.0,15.98,18.54,12.41,47.59359,-54.27349
2020-11-15 03:14:01+00:00,29.0,29.0,14.79,16.89,12.33,47.59359,-54.27349
2020-11-15 03:24:01+00:00,32.0,34.0,15.32,17.34,12.33,47.59359,-54.27349
2020-11-15 03:34:01+00:00,24.0,19.0,15.43,17.36,12.33,47.59359,-54.27349
2020-11-15 03:44:01+00:00,25.0,34.0,14.91,18.55,12.33,47.59359,-54.27349
2020-11-15 03:54:01+00:00,31.0,34.0,15.2,17.92,12.33,47.59359,-54.27349
2020-11-15 04:04:01+00:00,32.0,33.0,16.03,18.15,12.33,47.59359,-54.27349
2020-11-15 04:14:01+00:00,29.0,23.0,15.9,17.59,12.33,47.59359,-54.27349
2020-11-15 04:24:01+00:00,29.0,31.0,15.06,17.65,12.33,47.59359,-54.27349
2020-11-15 04:34:01+00:00,22.0,17.0,14.79,17.17,12.33,47.59359,-54.27349
2020-11-15 04:44:01+00:00,21.0,20.0,11.85,15.43,12.33,47.59359,-54.27349
2020-11-15 04:54:01+00:00,22.0,26.0,14.56,16.93,12.33,47.59359,-54.27349
2020-11-15 05:04:01+00:00,16.0,15.0,12.95,15.19,12.33,47.59359,-54.27349
2020-11-15 05:14:01+00:00,16.0,19.0,13.24,14.81,12.33,47.59359,-54.27349
2020-11-15 05:24:01+00:00,19.0,22.0,11.97,13.44,12.33,47.59359,-54.27349
2020-11-15 05:34:01+00:00,19.0,20.0,13.92,15.7,12.33,47.59359,-54.27349
2020-11-15 05:44:01+00:00,8.0,7.0,11.55,13.25,12.33,47.59359,-54.27349
2020-11-15 05:54:01+00:00,5.0,2.0,11.4,13.25,12.33,47.59359,-54.27349
2020-11-15 06:04:01+00:00,5.0,4.0,11.36,13.68,12.33,47.59359,-54.27349
2020-11-15 06:14:01+00:00,10.0,13.0,12.99,15.26,12.33,47.59359,-54.27349
2020-11-15 06:24:01+00:00,5.0,6.0,12.68,14.82,12.33,47.59359,-54.27349
2020-11-15 06:34:01+00:00,11.0,11.0,12.86,15.29,12.33,47.59359,-54.27349
2020-11-15 06:44:01+00:00,6.0,1.0,12.46,14.76,12.33,47.59359,-54.27349
2020-11-15 06:54:01+00:00,7.0,14.0,12.08,15.05,12.33,47.59359,-54.27349
2020-11-15 07:04:01+00:00,7.0,359.0,12.46,14.51,12.33,47.59359,-54.27349
2020-11-15 07:14:01+00:00,6.0,2.0,12.85,15.23,12.33,47.59359,-54.27349
2020-11-15 07:24:01+00:00,4.0,2.0,12.58,14.1,12.33,47.59359,-54.27349
2020-11-15 07:34:01+00:00,3.0,1.0,12.66,14.58,12.33,47.59359,-54.27349
2020-11-15 07:44:01+00:00,2.0,1.0,12.68,14.32,12.33,47.59359,-54.27349
2020-11-15 07:54:01+00:00,4.0,0.0,10.8,13.58,12.33,47.59359,-54.27349
2020-11-15 08:04:01+00:00,1.0,1.0,12.25,13.88,12.33,47.59359,-54.27349
2020-11-15 08:14:01+00:00,11.0,13.0,10.92,12.78,12.33,47.59359,-54.27349
2020-11-15 08:24:01+00:00,5.0,1.0,12.94,14.37,12.33,47.59359,-54.27349
2020-11-15 08:34:01+00:00,10.0,17.0,11.05,13.36,12.33,47.59359,-54.27349
2020-11-15 08:44:01+00:00,14.0,17.0,12.38,14.6,12.33,47.59359,-54.27349
2020-11-15 08:54:01+00:00,8.0,8.0,11.69,13.73,12.33,47.59359,-54.27349
2020-11-15 09:04:01+00:00,10.0,13.0,10.82,13.17,12.33,47.59359,-54.27349
2020-11-15 09:14:01+00:00,6.0,12.0,12.98,14.77,12.33,47.59359,-54.27349
2020-11-15 09:24:01+00:00,6.0,2.0,11.77,14.49,12.33,47.59359,-54.27349
2020-11-15 09:34:01+00:00,9.0,15.0,11.34,13.13,12.33,47.59359,-54.27349
2020-11-15 09:44:01+00:00,1.0,0.0,12.64,14.61,12.33,47.59359,-54.27349
2020-11-15 09:54:01+00:00,6.0,3.0,10.66,12.92,12.33,47.59359,-54.27349
2020-11-15 10:04:01+00:00,4.0,354.0,11.91,13.81,12.33,47.59359,-54.27349
2020-11-15 10:14:01+00:00,4.0,4.0,12.0,13.44,12.33,47.59359,-54.27349
2020-11-15 10:24:01+00:00,6.0,4.0,11.02,13.7,12.33,47.59359,-54.27349
2020-11-15 10:34:01+00:00,3.0,4.0,12.66,14.36,12.33,47.59359,-54.27349
2020-11-15 10:44:01+00:00,5.0,12.0,11.77,15.09,12.33,47.59359,-54.27349
2020-11-15 10:54:01+00:00,4.0,0.0,10.31,13.36,12.33,47.59359,-54.27349
2020-11-15 11:04:01+00:00,7.0,8.0,12.91,15.98,12.33,47.59359,-54.27349
2020-11-15 11:14:01+00:00,5.0,358.0,12.91,15.3,12.33,47.59359,-54.27349
2020-11-15 11:24:01+00:00,7.0,359.0,12.17,15.4,12.33,47.59359,-54.27349
2020-11-15 11:34:01+00:00,4.0,4.0,12.54,14.3,12.33,47.59359,-54.27349
2020-11-15 11:44:01+00:00,4.0,1.0,13.54,15.23,12.33,47.59359,-54.27349
2020-11-15 11:54:01+00:00,6.0,6.0,11.33,13.8,12.33,47.59359,-54.27349
2020-11-15 12:04:01+00:00,11.0,12.0,12.26,13.9,12.33,47.59359,-54.27349
2020-11-15 12:14:01+00:00,7.0,15.0,11.06,13.23,12.97,47.59359,-54.27349
2020-11-15 12:24:01+00:00,9.0,3.0,11.42,14.18,12.97,47.59359,-54.27349
2020-11-15 12:34:01+00:00,9.0,14.0,11.59,13.88,12.97,47.59359,-54.27349
2020-11-15 12:44:01+00:00,7.0,2.0,10.73,13.15,12.97,47.59359,-54.27349
2020-11-15 12:54:01+00:00,10.0,3.0,10.8,12.48,12.97,47.59359,-54.27349
2020-11-15 13:04:01+00:00,5.0,2.0,11.61,13.6,12.97,47.59359,-54.27349
2020-11-15 13:14:01+00:00,11.0,9.0,12.29,14.35,13.68,47.59359,-54.27349
2020-11-15 13:24:01+00:00,7.0,7.0,10.77,13.68,13.68,47.59359,-54.27349
2020-11-15 13:34:01+00:00,12.0,9.0,11.02,12.63,13.68,47.59359,-54.27349
2020-11-15 13:44:01+00:00,11.0,17.0,10.05,14.32,13.68,47.59359,-54.27349
2020-11-15 13:54:01+00:00,10.0,13.0,10.18,12.67,13.68,47.59359,-54.27349
2020-11-15 14:04:01+00:00,8.0,17.0,10.57,14.76,13.68,47.59359,-54.27349
2020-11-15 14:14:01+00:00,15.0,20.0,11.58,14.16,13.92,47.59359,-54.27349
2020-11-15 14:24:01+00:00,11.0,17.0,10.85,12.87,13.92,47.59359,-54.27349
2020-11-15 14:34:01+00:00,14.0,18.0,10.8,13.07,13.92,47.59359,-54.27349
2020-11-15 14:44:01+00:00,17.0,19.0,11.23,13.0,13.92,47.59359,-54.27349
2020-11-15 14:54:01+00:00,8.0,6.0,10.97,13.17,13.92,47.59359,-54.27349
2020-11-15 15:04:01+00:00,8.0,19.0,10.55,13.18,13.92,47.59359,-54.27349
2020-11-15 15:14:01+00:00,13.0,15.0,10.62,12.13,14.32,47.59359,-54.27349
2020-11-15 15:24:01+00:00,7.0,14.0,10.23,11.97,14.32,47.59359,-54.27349
2020-11-15 15:34:01+00:00,4.0,6.0,10.38,12.34,14.32,47.59359,-54.27349
2020-11-15 15:44:01+00:00,14.0,14.0,11.25,13.42,14.32,47.59359,-54.27349
2020-11-15 15:54:01+00:00,4.0,356.0,10.53,12.78,14.32,47.59359,-54.27349
2020-11-15 16:04:01+00:00,1.0,6.0,10.63,12.81,14.32,47.59359,-54.27349
2020-11-15 16:14:01+00:00,4.0,4.0,10.48,12.76,13.84,47.59359,-54.27349
2020-11-15 16:24:01+00:00,2.0,2.0,10.63,12.14,13.84,47.59359,-54.27349
2020-11-15 16:34:01+00:00,6.0,14.0,8.87,10.98,13.84,47.59359,-54.27349
2020-11-15 16:44:01+00:00,3.0,2.0,10.39,13.12,13.84,47.59359,-54.27349
2020-11-15 16:54:01+00:00,357.0,3.0,9.8,11.28,13.84,47.59359,-54.27349
2020-11-15 17:04:01+00:00,1.0,4.0,10.1,11.47,13.84,47.59359,-54.27349
2020-11-15 17:14:01+00:00,2.0,3.0,11.47,13.16,14.32,47.59359,-54.27349
2020-11-15 17:24:01+00:00,1.0,6.0,9.66,11.12,14.32,47.59359,-54.27349
2020-11-15 17:34:01+00:00,12.0,15.0,8.75,10.43,14.32,47.59359,-54.27349
2020-11-15 17:44:01+00:00,9.0,16.0,8.36,10.54,14.32,47.59359,-54.27349
2020-11-15 17:54:01+00:00,6.0,2.0,10.85,12.33,14.32,47.59359,-54.27349
2020-11-15 18:04:01+00:00,6.0,3.0,10.13,12.05,14.32,47.59359,-54.27349
2020-11-15 18:14:01+00:00,9.0,4.0,10.09,11.9,14.24,47.59359,-54.27349
2020-11-15 18:24:01+00:00,13.0,9.0,11.0,12.98,14.24,47.59359,-54.27349
2020-11-15 18:34:01+00:00,11.0,22.0,9.56,11.84,14.24,47.59359,-54.27349
2020-11-15 18:44:01+00:00,7.0,3.0,9.77,11.79,14.24,47.59359,-54.27349
2020-11-15 18:54:01+00:00,3.0,359.0,11.0,12.45,14.24,47.59359,-54.27349
2020-11-15 19:04:01+00:00,21.0,19.0,10.22,13.2,14.24,47.59359,-54.27349
2020-11-15 19:14:01+00:00,0.0,358.0,11.73,13.52,13.68,47.59359,-54.27349
2020-11-15 19:24:01+00:00,11.0,4.0,10.01,12.01,13.68,47.59359,-54.27349
2020-11-15 19:34:01+00:00,15.0,16.0,9.15,10.3,13.68,47.59359,-54.27349
2020-11-15 19:44:01+00:00,5.0,3.0,8.04,9.46,13.68,47.59359,-54.27349
2020-11-15 19:54:01+00:00,355.0,1.0,7.44,8.59,13.68,47.59359,-54.27349
2020-11-15 20:04:01+00:00,2.0,1.0,8.8,9.92,13.68,47.59359,-54.27349
2020-11-15 20:14:01+00:00,23.0,17.0,9.61,11.25,12.97,47.59359,-54.27349
2020-11-15 20:24:01+00:00,5.0,6.0,9.79,11.26,12.97,47.59359,-54.27349
2020-11-15 20:34:01+00:00,10.0,14.0,8.42,10.45,12.97,47.59359,-54.27349
2020-11-15 20:44:01+00:00,3.0,13.0,9.29,10.87,12.97,47.59359,-54.27349
2020-11-15 20:54:01+00:00,2.0,0.0,8.97,10.35,12.97,47.59359,-54.27349
2020-11-15 21:04:01+00:00,1.0,3.0,9.7,10.71,12.97,47.59359,-54.27349
2020-11-15 21:14:01+00:00,6.0,7.0,8.74,10.49,12.73,47.59359,-54.27349
2020-11-15 21:24:01+00:00,4.0,7.0,10.36,11.66,12.73,47.59359,-54.27349
2020-11-15 21:34:01+00:00,11.0,9.0,8.3,9.83,12.73,47.59359,-54.27349
2020-11-15 21:44:01+00:00,16.0,18.0,9.54,10.75,12.73,47.59359,-54.27349
2020-11-15 21:54:01+00:00,9.0,3.0,9.17,10.63,12.73,47.59359,-54.27349
2020-11-15 22:04:01+00:00,14.0,13.0,9.57,13.16,12.73,47.59359,-54.27349
2020-11-15 22:14:01+00:00,13.0,14.0,9.64,10.77,12.65,47.59359,-54.27349
2020-11-15 22:24:01+00:00,9.0,19.0,8.22,9.41,12.65,47.59359,-54.27349
2020-11-15 22:34:01+00:00,13.0,11.0,9.34,10.94,12.65,47.59359,-54.27349
2020-11-15 22:44:01+00:00,14.0,14.0,9.19,11.01,12.65,47.59359,-54.27349
2020-11-15 22:54:01+00:00,17.0,26.0,8.0,9.26,12.65,47.59359,-54.27349
2020-11-15 23:04:01+00:00,3.0,2.0,8.31,9.36,12.65,47.59359,-54.27349
2020-11-15 23:14:01+00:00,359.0,1.0,7.71,8.7,12.65,47.59359,-54.27349
2020-11-15 23:24:01+00:00,5.0,8.0,8.24,9.4,12.65,47.59359,-54.27349
2020-11-15 23:34:01+00:00,16.0,18.0,7.63,8.73,12.65,47.59359,-54.27349
2020-11-15 23:44:01+00:00,2.0,358.0,7.84,8.62,12.65,47.59359,-54.27349
2020-11-15 23:54:01+00:00,9.0,13.0,7.13,8.24,12.65,47.59359,-54.27349
